Simultaneous Nadir Overpasses (SNOs) Predictions

Prediction of SNOs between NOAA-19 and METOP-C Satellite Orbit:

Table of predicted SNOs for the next 14.0 days since TLE Epoch: 5/14/2022
Index Date (NOAA-19) Time (NOAA-19) Lat,Lon (NOAA-19) SZA (NOAA-19 ) Date (METOP-C) Time (METOP-C) Lat,Lon (METOP-C) SZA (METOP-C ) Distance(km) Time Diff (sec)
1 05/18/2022 00:21:41 -80.83, 27.46 117.08 05/18/2022 00:22:42 -80.83, 27.49 117.05 0.97 61
2 05/18/2022 01:12:41 80.83,-165.45 62.91 05/18/2022 01:13:24 80.82,-165.48 62.91 1.62 43
3 05/18/2022 02:03:41 -80.83, 1.94 117.10 05/18/2022 02:04:04 -80.83, 1.99 117.08 0.93 23
4 05/18/2022 02:54:40 80.82, 169.41 62.92 05/18/2022 02:54:45 80.83, 169.36 62.92 0.95 5
5 05/18/2022 03:45:40 -80.82, -23.21 117.08 05/18/2022 03:45:25 -80.84, -23.17 117.07 1.75 15
6 05/18/2022 04:36:40 80.82, 143.90 62.90 05/18/2022 04:36:07 80.82, 143.85 62.88 1.02 33
7 05/18/2022 05:27:40 -80.82, -48.73 117.10 05/18/2022 05:26:47 -80.83, -48.67 117.11 1.12 53



Historial Predications of SNOs between NOAA-19 and METOP-C
